Content
SEND FEEDBACK

Daily
Averages
Monthly
Summary
United States of America

CAMPO, COLORADO


Home > North America > United States > Colorado
Elevation: 4457 feet     Latitude: 37 05N     Longitude: 102 41W

WEATHER
 
SELECT A DAY
Number of Records: 140,044;   Date Range: 6/25/98 - 10/20/14
 
SHARE

PRINT THIS DATA

[ ← Previous Day ]
WEATHER ALMANAC - JANUARY 23, 2013
[ Next Day → ]
[ °C ]   °F
Weather ElementAverageHighLow
Temperature45.5 °F75 °F (2:56 pm)23 °F (11:56 pm)
Dewpoint4.6 °F19.9 °F (9:56 pm)-11 °F (11:56 am)
Humidity29.3 %78 % (11:56 pm)4 % (10:56 am)
Barometer30.11 in30.18 in (6:56 am)30.00 in (3:56 pm)
Wind Speed8 mph13.8 mph (3:56 am)
Wind Gust18.4 mph (11:56 am)
Weather ElementAverage
Wind DirectionSSW (200 °)

Weather ElementTotal
Precipitation---
Heating Degree Days16 (Base 65)
Averaged from 23 records on January 23, 2013
WEATHER CONDITIONS BREAKOUT
WIND DIRECTION BREAKOUT
WEATHER BY HOUR - JANUARY 23, 2013
[ °C ]   °F
Local TimeTemperatureDewpointHumidityBarometerVisibilityWind DirectionWind SpeedGust SpeedPrecipitationEventsConditions
1:56 AM24.1 °F12.0 °F60 %30.12 inWest (270°)4.6 mph
2:56 AM25.0 °F8.1 °F49 %30.11 inWNW (290°)6.9 mph
3:56 AM30.9 °F1.9 °F29 %30.09 inNW (320°)13.8 mph
4:56 AM32.0 °F0.0 °F26 %30.11 inNW (310°)13.8 mph
5:56 AM30.9 °F1.0 °F28 %30.15 inNW (310°)4.6 mph
6:56 AM28.9 °F0.0 °F29 %30.18 inNW (310°)4.6 mph
7:56 AM34.0 °F1.9 °F26 %30.17 inNW (310°)4.6 mph
8:56 AM48.9 °F7.0 °F18 %30.16 inWSW (250°)4.6 mph
9:56 AM64.9 °F3.9 °F9 %30.14 inWest (270°)4.6 mph
10:56 AM69.1 °F-9.0 °F4 %30.12 inWest (270°)9.2 mph
11:56 AM70.0 °F-11.0 °F4 %30.08 inWSW (240°)13.8 mph18.4 mph
12:56 PM71.1 °F-9.9 °F4 %30.04 inWSW (240°)13.8 mph
1:56 PM73.0 °F-2.9 °F5 %30.02 inSW (220°)8.1 mph
2:56 PM75.0 °F-5.1 °F4 %30.01 inVariable4.6 mph
3:56 PM72.0 °F-6.0 °F4 %30.00 inSouth (190°)5.8 mph
4:56 PM54.0 °F-0.9 °F11 %30.06 inSSW (210°)6.9 mph
5:56 PM46.0 °F9.0 °F22 %30.12 inEast (80°)9.2 mph
6:56 PM42.1 °F15.1 °F34 %30.14 inEast (80°)5.8 mph
7:56 PM37.0 °F16.0 °F42 %30.15 inEast (100°)9.2 mph
8:56 PM36.0 °F18.0 °F48 %30.12 inEast (100°)13.8 mph
9:56 PM30.9 °F19.9 °F64 %30.12 inEast (90°)8.1 mph
10:56 PM27.0 °F19.9 °F75 %30.13 inENE (70°)6.9 mph
11:56 PM23.0 °F17.1 °F78 %30.15 inENE (70°)5.8 mph
Hourly data recorded from KSPD, located miles away from Campo, Colorado







STORIES FROM OUR PARTNERS